CST,Max TemperatureF,Mean TemperatureF,Min TemperatureF,Max Dew PointF,MeanDew PointF,Min DewpointF,Max Humidity, Mean Humidity, Min Humidity, Max Sea Level PressureIn, Mean Sea Level PressureIn, Min Sea Level PressureIn, Max VisibilityMiles, Mean VisibilityMiles, Min VisibilityMiles, Max Wind SpeedMPH, Mean Wind SpeedMPH, Max Gust SpeedMPH,PrecipitationIn, CloudCover, Events, WindDirDegrees
2012-12-1,55,46,37,52,42,33,97,88,74,30.13,29.91,29.83,5,2,1,12,6,,0.00,8,Rain,108
2012-12-2,55,44,33,52,41,32,100,91,71,30.03,29.95,29.82,5,2,0,9,4,,0.00,4,Fog,255
2012-12-3,64,53,42,59,50,36,100,87,64,29.98,29.81,29.65,10,4,0,20,9,26,0.02,7,Fog-Rain,151
2012-12-4,53,42,27,34,26,14,85,59,38,30.36,30.12,29.95,10,10,10,21,6,28,0.00,0,,298
2012-12-5,37,28,18,26,16,11,74,59,41,30.46,30.34,30.15,10,10,10,12,5,,0.00,0,,97
2012-12-6,46,40,32,35,32,27,85,70,63,30.13,29.95,29.86,10,10,9,10,6,,0.00,5,,204
2012-12-7,42,38,33,31,25,22,85,63,45,30.01,29.97,29.93,10,10,8,10,3,,0.00,6,,9
2012-12-8,39,32,26,27,24,21,84,70,51,30.09,30.04,29.96,10,10,7,10,4,,0.00,4,,89
2012-12-9,36,34,33,32,31,27,96,88,75,30.06,29.84,29.72,10,2,0,13,8,,0.22,8,Fog-Snow,83
2012-12-10,33,28,24,30,25,21,93,83,69,29.96,29.84,29.72,10,7,2,14,9,17,0.00,8,Snow,288
2012-12-11,30,21,14,24,18,9,88,78,68,30.09,29.97,29.92,10,9,4,10,5,18,0.00,6,Snow,227
2012-12-12,42,32,21,25,23,17,92,68,50,30.17,30.13,30.09,10,9,7,16,3,25,0.00,1,,169
2012-12-13,43,35,26,25,22,20,88,61,47,30.15,30.10,30.04,10,9,7,12,5,21,0.00,0,,211
2012-12-14,48,34,21,32,27,19,89,76,46,30.18,30.09,29.95,10,7,4,10,3,,0.00,1,,103
2012-12-15,44,42,39,43,40,33,100,91,73,29.91,29.61,29.51,9,3,1,15,8,20,0.46,8,Rain,100
2012-12-16,44,40,34,43,36,30,100,86,79,29.74,29.62,29.51,10,7,0,16,7,,0.06,8,Fog-Rain,278
2012-12-17,32,30,28,28,24,22,87,79,72,29.76,29.74,29.70,9,7,3,9,5,,0.00,8,,328
2012-12-18,30,29,28,28,27,23,93,87,78,29.88,29.69,29.61,8,3,0,14,6,,0.08,8,Fog-Snow,69
2012-12-19,34,31,28,30,28,26,93,87,81,30.04,29.97,29.85,6,2,0,13,3,,0.12,8,Fog-Snow,68
2012-12-20,33,30,27,29,27,18,93,85,69,29.83,29.58,29.37,7,1,0,26,16,41,0.38,8,Fog-Snow,1
2012-12-21,26,14,3,18,10,-1,88,68,53,30.25,30.06,29.74,10,9,5,23,15,33,0.00,1,,292
2012-12-22,23,10,-2,14,2,-7,88,81,65,30.25,30.11,29.97,10,7,2,5,1,,0.00,0,,90
2012-12-23,24,12,0,18,10,-4,88,83,71,30.09,30.06,29.99,10,7,4,8,2,,0.00,4,,39
2012-12-24,25,21,17,21,16,10,89,77,62,30.19,30.03,29.96,10,7,2,8,2,,0.00,7,,337
2012-12-25,21,13,5,8,5,1,84,71,57,30.42,30.35,30.22,10,10,10,9,5,,0.00,0,,291
2012-12-26,28,20,12,15,11,3,78,70,58,30.34,30.24,30.17,10,10,10,13,6,18,0.00,4,,346
2012-12-27,28,18,7,18,14,4,88,77,66,30.26,30.20,30.13,10,9,8,8,4,,0.00,8,,44
2012-12-28,27,18,10,23,19,7,93,85,80,30.13,30.00,29.93,10,2,0,6,3,,0.04,8,Fog-Snow,71
2012-12-29,24,17,5,20,15,2,93,80,71,30.23,30.05,29.93,10,8,4,16,7,26,0.00,6,,289
2012-12-30,32,16,3,22,9,1,92,81,66,30.32,30.20,29.96,10,5,2,12,2,,0.00,3,,236
2012-12-31,33,20,5,23,12,-1,86,72,57,30.23,30.08,29.94,10,8,4,13,8,,0.00,3,,287